K5KVN-2 Weather Reports


Display with metric or nautical units.
time (UTC)temp
F
wind
direction
speed
MPH
gust
MPH
rain 1hr
in
rain 24hr
in
rain mn
in
humidity
%
barometer
mb
20260504034436 67 229 6.0 9.0 0.00 0.00 0.00 55 1013.3
20260504033438 68 178 6.0 10.0 0.00 0.00 0.00 54 1013.3
20260504032435 68 184 6.0 12.0 0.00 0.00 0.00 53 1013.4
20260504031920 68 162 6.0 10.0 0.00 0.00 0.00 53 1013.4
20260504030432 68 194 6.0 10.0 0.00 0.00 0.00 53 1013.4
20260504023916 68 209 7.0 10.0 0.00 0.00 0.00 54 1013.2
20260504022432 68 181 6.0 10.0 0.00 0.00 0.00 53 1013.2
20260504021431 68 182 6.0 10.0 0.00 0.00 0.00 54 1012.9
20260504020432 68 180 6.0 11.0 0.00 0.00 0.00 53 1012.9
20260504015433 68 176 5.0 10.0 0.00 0.00 0.00 54 1012.8
20260504014431 69 188 5.0 7.0 0.00 0.00 0.00 54 1012.8
20260504013436 69 174 4.0 7.0 0.00 0.00 0.00 53 1012.8
20260504012430 70 186 4.0 7.0 0.00 0.00 0.00 52 1012.8
20260504011430 71 192 4.0 7.0 0.00 0.00 0.00 50 1012.7
20260504005431 72 195 5.0 7.0 0.00 0.00 0.00 48 1012.6
20260504004428 73 192 4.0 6.0 0.00 0.00 0.00 47 1012.6
20260504003427 74 186 3.0 5.0 0.00 0.00 0.00 45 1012.6
20260504002427 75 227 3.0 8.0 0.00 0.00 0.00 42 1012.7
20260504001906 76 209 3.0 6.0 0.00 0.00 0.00 40 1012.8
20260504000424 76 215 3.0 7.0 0.00 0.00 0.00 39 1012.8
20260503235424 76 204 4.0 7.0 0.00 0.00 0.00 36 1013.1
20260503234424 77 199 4.0 11.0 0.00 0.00 0.00 35 1013.1
20260503233430 77 199 4.0 11.0 0.00 0.00 0.00 34 1013.2
20260503232420 77 196 5.0 12.0 0.00 0.00 0.00 31 1013.2
20260503231421 78 198 5.0 10.0 0.00 0.00 0.00 31 1013.3
20260503230907 78 250 6.0 10.0 0.00 0.00 0.00 31 1013.3
20260503225414 78 223 5.0 12.0 0.00 0.00 0.00 32 1013.4
20260503224413 78 194 7.0 16.0 0.00 0.00 0.00 40 1013.4
20260503223413 78 168 10.0 16.0 0.00 0.00 0.00 44 1013.3
20260503222413 78 188 11.0 19.0 0.00 0.00 0.00 42 1013.5
20260503221412 78 187 7.0 15.0 0.00 0.00 0.00 41 1013.6
20260503220852 78 227 5.0 11.0 0.00 0.00 0.00 40 1013.7
20260503215407 78 221 9.0 17.0 0.00 0.00 0.00 38 1013.8
20260503214407 78 191 10.0 22.0 0.00 0.00 0.00 41 1013.9
20260503213403 78 177 7.0 18.0 0.00 0.00 0.00 41 1014.0
20260503212406 78 200 9.0 18.0 0.00 0.00 0.00 44 1014.2
20260503211403 78 188 10.0 18.0 0.00 0.00 0.00 42 1014.3
20260503210404 78 221 8.0 16.0 0.00 0.00 0.00 43 1014.5
20260503205403 78 165 9.0 18.0 0.00 0.00 0.00 44 1014.8
20260503204401 78 180 6.0 11.0 0.00 0.00 0.00 44 1015.1
20260503203402 78 217 8.0 16.0 0.00 0.00 0.00 46 1015.1
20260503202401 77 184 9.0 17.0 0.00 0.00 0.00 47 1015.3
20260503201845 77 178 7.0 16.0 0.00 0.00 0.00 44 1015.4
20260503200358 77 205 8.0 16.0 0.00 0.00 0.00 44 1015.7
20260503195358 77 177 8.0 17.0 0.00 0.00 0.00 43 1015.7
20260503194837 77 174 9.0 16.0 0.00 0.00 0.00 49 1016.1
20260503193400 77 195 7.0 15.0 0.00 0.00 0.00 46 1016.3
20260503192359 76 188 6.0 13.0 0.00 0.00 0.00 46 1016.4
20260503191358 76 205 9.0 18.0 0.00 0.00 0.00 46 1016.5
20260503190358 75 192 9.0 17.0 0.00 0.00 0.00 47 1016.6
20260503185832 75 242 9.0 15.0 0.00 0.00 0.00 48 1016.7
20260503184357 75 184 6.0 13.0 0.00 0.00 0.00 46 1016.6
20260503183354 75 240 8.0 16.0 0.00 0.00 0.00 47 1016.7
20260503182353 74 210 8.0 17.0 0.00 0.00 0.00 48 1016.9
20260503181351 74 197 11.0 19.0 0.00 0.00 0.00 47 1017.0
20260503180352 74 204 10.0 17.0 0.00 0.00 0.00 44 1017.1
20260503175843 73 171 11.0 18.0 0.00 0.00 0.00 45 1017.3
20260503174353 73 182 9.0 16.0 0.00 0.00 0.00 46 1017.4
20260503173347 73 189 10.0 18.0 0.00 0.00 0.00 45 1017.5
20260503172345 71 184 13.0 22.0 0.00 0.00 0.00 46 1017.6
20260503171346 72 168 10.0 21.0 0.00 0.00 0.00 45 1017.8
20260503170345 71 187 11.0 19.0 0.00 0.00 0.00 47 1018.0
20260503150340 65 166 11.0 17.0 0.00 0.00 0.00 48 1019.3
20260503131336 53 128 1.0 3.0 0.00 0.00 0.00 66 1019.8
20260503130336 51 126 0.0 3.0 0.00 0.00 0.00 67 1019.8
20260503110321 41 134 0.0 0.0 0.00 0.00 0.00 88 1019.0
20260503090312 43 94 0.0 1.0 0.00 0.00 0.00 85 1019.5
20260503081310 43 108 0.0 0.0 0.00 0.00 0.00 87 1019.9
20260503080312 42 108 0.0 0.0 0.00 0.00 0.00 88 1019.9
20260503072804 43 108 0.0 0.0 0.00 0.00 0.00 86 1020.2
20260503071307 44 108 0.0 1.0 0.00 0.00 0.00 84 1020.2
20260503070307 44 108 0.0 0.0 0.00 0.00 0.00 83 1020.2
20260503060304 45 103 0.0 1.0 0.00 0.00 0.00 84 1020.7
20260503054740 45 198 1.0 3.0 0.00 0.00 0.00 82 1020.7
20260503053259 46 36 0.0 1.0 0.00 0.00 0.00 83 1020.7
20260503052300 45 340 0.0 0.0 0.00 0.00 0.00 83 1020.7
20260503051300 45 325 0.0 1.0 0.00 0.00 0.00 83 1020.7
20260503050259 45 296 0.0 0.0 0.00 0.00 0.00 80 1020.7
20260503045301 46 296 0.0 0.0 0.00 0.00 0.00 79 1020.5
20260503044748 46 296 0.0 0.0 0.00 0.00 0.00 77 1020.5
20260503043300 46 296 0.0 0.0 0.00 0.00 0.00 75 1020.6
20260503042740 47 296 0.0 0.0 0.00 0.00 0.00 75 1020.6
20260503041258 47 296 0.0 0.0 0.00 0.00 0.00 74 1020.6
20260503040738 47 296 0.0 0.0 0.00 0.00 0.00 73 1020.5
20260503035254 48 296 0.0 0.0 0.00 0.00 0.00 74 1020.5